Regional Weather Roundup
Issued by NWS

Home | Current Version | Previous Version | Text Only | Print | Product List | Glossary Off
Versions: 1 2 3 4 5 6 7 8 9 10 11 12 13 14 15 16 17 18 19 20 21 22 23 24 25 26 27 28 29 30 31 32 33 34 35 36 37 38 39 40 41 42 43 44 45 46 47 48 49 50

000
ASUS43 KFSD 281710
RWRSD

WEATHER ROUNDUP FOR SOUTH DAKOTA
NATIONAL WEATHER SERVICE SIOUX FALLS SD
1200 PM CDT THU APR 28 2016

NOTE: "FAIR" INDICATES FEW OR NO CLOUDS BELOW 12,000 FEET WITH NO
SIGNIFICANT WEATHER AND/OR OBSTRUCTIONS TO VISIBILITY.


SDZ001>005-009-010-012>017-281800-
NORTHWEST AND NORTH CENTRAL SOUTH DAKOTA

CITY           SKY/WX    TMP DP  RH WIND       PRES   REMARKS
BUFFALO          N/A     36  32  85 NE14      30.01R
FAITH            N/A     35  31  85 NE13      30.06R WCI  26
MOBRIDGE       CLOUDY    47  37  68 N10       30.05R
$$

SDZ012>016-024>037-041>051-057-063-072>074-281800-
SOUTHWEST AND SOUTH CENTRAL SOUTH DAKOTA

CITY           SKY/WX    TMP DP  RH WIND       PRES   REMARKS
RAPID CTY ARPT CLOUDY    35  33  92 NW10      30.05R WCI  27
PIERRE         CLOUDY    40  35  83 N9        30.03S
CUSTER         CLOUDY    31  24  75 VRB3      29.98R
ELLSWORTH AFB  CLOUDY    35  35 100 NW9       30.04  WCI  28
PHILIP         CLOUDY    40  35  83 N13       30.05R
PINE RIDGE     CLOUDY    37  32  82 N7        30.04S
WINNER         CLOUDY    40  36  86 N16       30.02R
$$

SDZ004>011-016>023-039-040-281800-
NORTHEAST SOUTH DAKOTA

CITY           SKY/WX    TMP DP  RH WIND       PRES   REMARKS
ABERDEEN       CLOUDY    47  33  58 NE9       30.05R
WATERTOWN      LGT SNOW  35  32  88 NE12      30.01R FOG     WCI  27
BROOKINGS      CLOUDY    36  33  89 NE10      29.98R
SISSETON         N/A     42  28  57 SE5       30.03R
$$

SDZ017-020-022-023-036>040-048>070-281800-
SOUTHEAST SOUTH DAKOTA

CITY           SKY/WX    TMP DP  RH WIND       PRES   REMARKS
SIOUX FALLS    CLOUDY    38  36  92 N14       29.97R
HURON          LGT RAIN  39  36  89 NE14      30.03R
CHAMBERLAIN    CLOUDY    40  38  92 NW7       30.01S
MITCHELL       LGT RAIN  40  37  89 N13       30.01R
YANKTON        CLOUDY    43  37  81 NW12      29.96S
$$

ABBREVIATIONS USED IN REMARKS
   TC - TEMPERATURE IN CELSIUS
  WCI - WIND CHILL INDEX
   HX - HEAT INDEX
  VSB - VISIBILITY




USA.gov is the U.S. government's official web portal to all federal, state and local government web resources and services.